This is the latest recevied weather packets stored in our database for station/object KC6OYN. If no packets are shown the sender has not sent any weather packets the latest 1 day(s).
| Time | Temp. | Humidity | Pressure | Rain* | Wind** | Luminosity | Snow |
|---|---|---|---|---|---|---|---|
| 1778100200 | 21.67° C | 61% | 1027.9 hPa | 0 mm | - | - | - |
| 1778099959 | 21.67° C | 60% | 1027.9 hPa | 0 mm | - | - | - |
| 1778099718 | 21.11° C | 60% | 1028 hPa | 0 mm | - | - | - |
| 1778099477 | 21.11° C | 60% | 1027.9 hPa | 0 mm | - | - | - |
| 1778098995 | 21.11° C | 60% | 1027.9 hPa | 0 mm | - | - | - |
| 1778097790 | 20.56° C | 61% | 1028 hPa | 0 mm | - | - | - |
| 1778096827 | 20° C | 61% | 1028 hPa | 0 mm | - | - | - |
| 1778096586 | 20° C | 61% | 1028 hPa | 0 mm | - | - | - |
| 1778095622 | 19.44° C | 62% | 1028.2 hPa | 0 mm | - | - | - |
| 1778093454 | 18.33° C | 63% | 1028.2 hPa | 0 mm | - | - | - |
| 1778093213 | 18.33° C | 64% | 1028.2 hPa | 0 mm | - | - | - |
| 1778092972 | 18.33° C | 63% | 1028.2 hPa | 0 mm | - | - | - |
| 1778092731 | 18.33° C | 64% | 1028.2 hPa | 0 mm | - | - | - |
| 1778090804 | 17.78° C | 66% | 1028.4 hPa | 0 mm | - | - | - |
| 1778090563 | 17.78° C | 66% | 1028.5 hPa | 0 mm | - | - | - |
| 1778090322 | 17.78° C | 66% | 1028.3 hPa | 0 mm | - | - | - |
| 1778090081 | 17.78° C | 66% | 1028.3 hPa | 0 mm | - | - | - |
| 1778087918 | 16.11° C | 68% | 1028.1 hPa | 0 mm | - | - | - |
| 1778086232 | 15.56° C | 68% | 1027.9 hPa | 0 mm | - | - | - |
| 1778085991 | 15.56° C | 69% | 1027.8 hPa | 0 mm | - | - | - |
| 1778085750 | 15.56° C | 69% | 1027.9 hPa | 0 mm | - | - | - |
| 1778084545 | 14.44° C | 70% | 1027.8 hPa | 0 mm | - | - | - |
| 1778083100 | 13.89° C | 74% | 1027.9 hPa | 0 mm | - | - | - |
| 1778082859 | 13.33° C | 74% | 1027.9 hPa | 0 mm | - | - | - |
| 1778082618 | 13.33° C | 75% | 1028 hPa | 0 mm | - | - | - |
* Rain since midnight (hover to see other rain measurements)
** Current wind speed in m/s (hover to see current wind gust speed)